When you browse on this site, cookies collect data to enhance your experience and personalize the content and advertising you see.
Visit our Privacy Policy to learn more. By continuing to use the site, you agree to this use of cookies and data.
  • în România
  • Lista ţărilor
  • Pe 7 zile
  • Temperatura apei
  • Hartă satelitară
  • Meteo pe hartă
  • Widget-uri
  • user-avatar
    Intrare

    Meteo pe oră la Craiova

    Astăzi, 18 Iunie, Marţi

    Timp Temperatura Precipitaţii Vânt Presiune Umiditate
    00:00 +24°C° 0.1 mm 2 m/s 751 mmHg 60%
    01:00 +23°C° 0.1 mm 2 m/s 751 mmHg 64%
    02:00 +21°C° 0.1 mm 2 m/s 751 mmHg 68%
    03:00 +21°C° 0.3 mm 2 m/s 751 mmHg 74%
    04:00 +20°C° 0.3 mm 2 m/s 751 mmHg 79%
    05:00 +20°C° 0.3 mm 2 m/s 751 mmHg 85%
    06:00 +21°C° 0 mm 2 m/s 752 mmHg 82%
    07:00 +24°C° 0 mm 2 m/s 752 mmHg 79%
    08:00 +25°C° 0 mm 2 m/s 752 mmHg 76%
    09:00 +27°C° 0 mm 2 m/s 752 mmHg 70%
    10:00 +28°C° 0 mm 2 m/s 752 mmHg 63%
    11:00 +30°C° 0 mm 2 m/s 752 mmHg 56%
    12:00 +30°C° 0 mm 2 m/s 752 mmHg 53%
    13:00 +31°C° 0 mm 2 m/s 752 mmHg 50%
    14:00 +33°C° 0 mm 3 m/s 751 mmHg 47%
    15:00 +33°C° 0 mm 3 m/s 751 mmHg 50%
    16:00 +31°C° 0 mm 3 m/s 751 mmHg 52%
    17:00 +31°C° 0 mm 3 m/s 750 mmHg 55%
    18:00 +29°C° 0.5 mm 3 m/s 750 mmHg 62%
    19:00 +28°C° 0.5 mm 3 m/s 750 mmHg 68%
    20:00 +26°C° 0.5 mm 3 m/s 750 mmHg 75%
    21:00 +25°C° 0.2 mm 3 m/s 750 mmHg 77%
    22:00 +24°C° 0.2 mm 2 m/s 751 mmHg 79%
    23:00 +23°C° 0.2 mm 2 m/s 751 mmHg 81%

    Mâine, 19 Iunie, Miercuri

    Timp Temperatura Precipitaţii Vânt Presiune Umiditate
    00:00 +23°C° 0.1 mm 2 m/s 751 mmHg 83%
    01:00 +21°C° 0.1 mm 2 m/s 751 mmHg 85%
    02:00 +21°C° 0.1 mm 2 m/s 751 mmHg 88%
    03:00 +20°C° 0.2 mm 2 m/s 751 mmHg 89%
    04:00 +20°C° 0.2 mm 3 m/s 751 mmHg 90%
    05:00 +20°C° 0.2 mm 3 m/s 751 mmHg 90%
    06:00 +21°C° 0 mm 3 m/s 751 mmHg 85%
    07:00 +22°C° 0 mm 3 m/s 751 mmHg 80%
    08:00 +25°C° 0 mm 4 m/s 751 mmHg 74%
    09:00 +26°C° 0 mm 4 m/s 751 mmHg 66%
    10:00 +28°C° 0 mm 4 m/s 751 mmHg 58%
    11:00 +30°C° 0 mm 4 m/s 751 mmHg 50%
    12:00 +30°C° 0 mm 4 m/s 750 mmHg 47%
    13:00 +32°C° 0 mm 4 m/s 750 mmHg 45%
    14:00 +32°C° 0 mm 4 m/s 750 mmHg 43%
    15:00 +31°C° 0 mm 3 m/s 749 mmHg 43%
    16:00 +31°C° 0 mm 3 m/s 749 mmHg 44%
    17:00 +31°C° 0 mm 3 m/s 749 mmHg 44%
    18:00 +29°C° 0 mm 3 m/s 749 mmHg 50%
    19:00 +27°C° 0 mm 2 m/s 749 mmHg 56%
    20:00 +26°C° 0 mm 2 m/s 749 mmHg 62%
    21:00 +25°C° 0 mm 2 m/s 749 mmHg 65%
    22:00 +24°C° 0 mm 2 m/s 750 mmHg 68%
    23:00 +23°C° 0 mm 2 m/s 750 mmHg 72%

    Poimâine, 20 Iunie, Joi

    Timp Temperatura Precipitaţii Vânt Presiune Umiditate
    00:00 +23°C° 0 mm 2 m/s 750 mmHg 75%
    01:00 +21°C° 0 mm 2 m/s 750 mmHg 79%
    02:00 +21°C° 0 mm 2 m/s 749 mmHg 82%
    03:00 +20°C° 0 mm 2 m/s 750 mmHg 83%
    04:00 +21°C° 0 mm 1 m/s 750 mmHg 85%
    05:00 +21°C° 0 mm 1 m/s 750 mmHg 86%
    06:00 +21°C° 0.1 mm 2 m/s 750 mmHg 81%
    07:00 +24°C° 0.1 mm 2 m/s 750 mmHg 76%
    08:00 +25°C° 0.1 mm 2 m/s 750 mmHg 71%
    09:00 +27°C° 0.6 mm 2 m/s 750 mmHg 67%
    10:00 +28°C° 0.6 mm 2 m/s 750 mmHg 62%
    11:00 +29°C° 0.6 mm 2 m/s 750 mmHg 57%
    12:00 +30°C° 0.1 mm 2 m/s 749 mmHg 53%
    13:00 +31°C° 0.1 mm 2 m/s 749 mmHg 50%
    14:00 +31°C° 0.1 mm 2 m/s 749 mmHg 46%
    15:00 +31°C° 0 mm 2 m/s 749 mmHg 47%
    16:00 +31°C° 0 mm 2 m/s 749 mmHg 48%
    17:00 +31°C° 0 mm 2 m/s 748 mmHg 49%
    18:00 +30°C° 0 mm 2 m/s 749 mmHg 54%
    19:00 +28°C° 0 mm 1 m/s 749 mmHg 59%
    20:00 +27°C° 0 mm 1 m/s 749 mmHg 64%
    21:00 +26°C° 0.1 mm 1 m/s 749 mmHg 67%
    22:00 +25°C° 0.1 mm 1 m/s 750 mmHg 71%
    23:00 +24°C° 0.1 mm 2 m/s 750 mmHg 74%

    21 Iunie, Vineri

    Timp Temperatura Precipitaţii Vânt Presiune Umiditate
    00:00 +23°C° 0.1 mm 2 m/s 750 mmHg 77%
    01:00 +23°C° 0.1 mm 1 m/s 750 mmHg 80%
    02:00 +22°C° 0.1 mm 1 m/s 750 mmHg 83%
    03:00 +21°C° 0.1 mm 2 m/s 750 mmHg 85%
    04:00 +20°C° 0.1 mm 2 m/s 750 mmHg 87%
    05:00 +20°C° 0.1 mm 2 m/s 750 mmHg 89%
    06:00 +23°C° 0 mm 2 m/s 750 mmHg 83%
    07:00 +24°C° 0 mm 2 m/s 751 mmHg 78%
    08:00 +26°C° 0 mm 2 m/s 751 mmHg 73%
    09:00 +27°C° 0.2 mm 2 m/s 751 mmHg 67%
    10:00 +29°C° 0.2 mm 2 m/s 751 mmHg 62%
    11:00 +30°C° 0.2 mm 2 m/s 751 mmHg 56%
    12:00 +31°C° 0.2 mm 1 m/s 751 mmHg 53%
    13:00 +31°C° 0.2 mm 1 m/s 750 mmHg 51%
    14:00 +32°C° 0.2 mm 1 m/s 750 mmHg 48%
    15:00 +32°C° 0 mm 1 m/s 750 mmHg 49%
    16:00 +32°C° 0 mm 1 m/s 750 mmHg 50%
    17:00 +31°C° 0 mm 1 m/s 750 mmHg 51%
    18:00 +30°C° 0 mm 1 m/s 750 mmHg 56%
    19:00 +28°C° 0 mm 1 m/s 750 mmHg 62%
    20:00 +27°C° 0 mm 2 m/s 750 mmHg 67%
    21:00 +26°C° 0.1 mm 2 m/s 750 mmHg 70%
    22:00 +25°C° 0.1 mm 2 m/s 751 mmHg 72%
    23:00 +25°C° 0.1 mm 2 m/s 751 mmHg 74%

    22 Iunie, Sâmbătă

    Timp Temperatura Precipitaţii Vânt Presiune Umiditate
    00:00 +24°C° 0 mm 2 m/s 751 mmHg 75%
    01:00 +24°C° 0 mm 1 m/s 751 mmHg 77%
    02:00 +23°C° 0 mm 1 m/s 751 mmHg 78%
    03:00 +23°C° 0.1 mm 1 m/s 751 mmHg 80%
    04:00 +22°C° 0.1 mm 1 m/s 751 mmHg 81%
    05:00 +22°C° 0.1 mm 1 m/s 751 mmHg 83%
    06:00 +23°C° 0.4 mm 1 m/s 751 mmHg 78%
    07:00 +25°C° 0.4 mm 1 m/s 752 mmHg 74%
    08:00 +27°C° 0.4 mm 1 m/s 752 mmHg 69%
    09:00 +28°C° 0 mm 1 m/s 752 mmHg 65%
    10:00 +29°C° 0 mm 1 m/s 752 mmHg 60%
    11:00 +31°C° 0 mm 1 m/s 752 mmHg 55%
    12:00 +32°C° 0 mm 2 m/s 751 mmHg 52%
    13:00 +32°C° 0 mm 2 m/s 751 mmHg 49%
    14:00 +34°C° 0 mm 2 m/s 751 mmHg 45%
    15:00 +34°C° 0 mm 2 m/s 751 mmHg 44%
    16:00 +34°C° 0 mm 2 m/s 751 mmHg 43%
    17:00 +34°C° 0 mm 2 m/s 751 mmHg 41%
    18:00 +31°C° 0 mm 2 m/s 751 mmHg 46%
    19:00 +30°C° 0 mm 1 m/s 751 mmHg 50%
    20:00 +28°C° 0 mm 1 m/s 751 mmHg 54%
    21:00 +27°C° 0 mm 1 m/s 751 mmHg 57%
    22:00 +26°C° 0 mm 1 m/s 751 mmHg 60%
    23:00 +25°C° 0 mm 1 m/s 752 mmHg 63%

    23 Iunie, Duminică

    Timp Temperatura Precipitaţii Vânt Presiune Umiditate
    00:00 +24°C° 0 mm 1 m/s 752 mmHg 68%
    01:00 +24°C° 0 mm 1 m/s 752 mmHg 72%
    02:00 +23°C° 0 mm 1 m/s 751 mmHg 76%
    03:00 +23°C° 0 mm 1 m/s 751 mmHg 79%
    04:00 +22°C° 0 mm 1 m/s 751 mmHg 82%
    05:00 +20°C° 0 mm 2 m/s 751 mmHg 84%
    06:00 +23°C° 0 mm 1 m/s 752 mmHg 79%
    07:00 +25°C° 0 mm 1 m/s 752 mmHg 74%
    08:00 +26°C° 0 mm 1 m/s 752 mmHg 69%
    09:00 +28°C° 0 mm 1 m/s 752 mmHg 64%
    10:00 +30°C° 0 mm 1 m/s 752 mmHg 58%
    11:00 +31°C° 0 mm 1 m/s 752 mmHg 53%
    12:00 +32°C° 0 mm 2 m/s 752 mmHg 49%
    13:00 +34°C° 0 mm 2 m/s 752 mmHg 44%
    14:00 +35°C° 0 mm 2 m/s 752 mmHg 40%
    15:00 +35°C° 0 mm 2 m/s 751 mmHg 40%
    16:00 +35°C° 0 mm 2 m/s 751 mmHg 41%
    17:00 +35°C° 0 mm 3 m/s 751 mmHg 41%
    18:00 +32°C° 0 mm 2 m/s 751 mmHg 47%
    19:00 +30°C° 0 mm 2 m/s 752 mmHg 53%
    20:00 +29°C° 0 mm 1 m/s 752 mmHg 59%
    21:00 +27°C° 0.2 mm 1 m/s 752 mmHg 64%
    22:00 +26°C° 0.2 mm 1 m/s 752 mmHg 68%
    23:00 +25°C° 0.2 mm 1 m/s 753 mmHg 72%
    Arată mai mult